Home > Weather > West Bromwich > Past weeks

Flag for United Kingdom Past Weather in West Bromwich, England, United Kingdom — Yesterday and Last 2 Weeks

Now
66 °F

Partly sunny.


Feels Like: 66 °F
Forecast: 55 / 68 °F
Wind: 7 mph from Southwest

Location: Birmingham / Airport

Current Time: Aug 28, 2016 at 11:37:51 AM

Latest Report: Aug 28, 2016 at 11:20 AM


Visibility: N/A

Pressure: 29.86 "Hg

Humidity: 78%

Dew Point: 59 °F

Location of West BromwichLocation

Past Weather in West Bromwich — Graph

°F

West Bromwich Temperature Yesterday

Maximum temperature yesterday: 70 °F (at 1:20 PM)
Minimum temperature yesterday: 50 °F (at 3:20 AM)
Average temperature yesterday: 59 °F

High & Low Weather Summary for the Past Weeks

 TemperatureHumidityPressure
High82 °F (Aug 23, 3:20 PM)100% (Aug 15, 4:50 AM)30.33 "Hg (Aug 15, 4:50 AM)
Low48 °F (Aug 15, 4:50 AM)39% (Aug 15, 5:20 PM)29.56 "Hg (Aug 19, 6:20 PM)
Average64 °F78%30.01 "Hg
* Reported Aug 13 10:20 AM — Aug 28 10:20 AM, West Bromwich, Weather by CustomWeather, © 2016

Note: Actual official high and low records may vary slightly from our data, if they occured in-between our weather recording intervals... More about our weather records

Advertising

West Bromwich Weather History for the Previous 24 Hours

Scroll right to see more
 ConditionsComfort  
Time TempWeatherWind HumidityBarometerVisibility
10:20 AM
Sun, Aug 28
66 °FScattered clouds.7 mph83%29.86 "HgN/A
9:50 AM64 °FPartly sunny.6 mph83%29.86 "HgN/A
9:20 AM64 °FScattered clouds.6 mph83%29.86 "HgN/A
8:50 AM63 °FPassing clouds.7 mph88%29.86 "HgN/A
8:20 AM63 °FPassing clouds.7 mph94%29.86 "Hg5 mi
7:50 AM61 °FScattered clouds.5 mph100%29.83 "Hg4 mi
7:20 AM63 °FScattered clouds.6 mph94%29.83 "Hg4 mi
6:50 AM63 °FPassing clouds.7 mph94%29.83 "Hg4 mi
6:20 AM63 °FFog.5 mph94%29.83 "Hg2 mi
5:50 AM63 °FFog.5 mph94%29.83 "Hg2 mi
5:20 AM61 °FFog.3 mph100%29.83 "Hg3 mi
4:50 AM61 °FOvercast.3 mph100%29.83 "Hg4 mi
4:20 AM61 °FPartly cloudy.3 mph100%29.83 "Hg4 mi
3:50 AM61 °FLow clouds.2 mph100%29.83 "Hg5 mi
3:20 AM61 °FLow clouds.2 mph94%29.83 "HgN/A
2:50 AM61 °FLow clouds.No wind94%29.83 "HgN/A
2:20 AM61 °FLow clouds.2 mph94%29.83 "HgN/A
1:50 AM61 °FLow clouds.2 mph94%29.83 "HgN/A
1:20 AM61 °FPassing clouds.3 mph94%29.86 "HgN/A
12:50 AM61 °FMostly cloudy.5 mph94%29.86 "HgN/A
12:20 AM61 °FMostly cloudy.2 mph94%29.89 "HgN/A
11:50 PM
Sat, Aug 27
61 °FMostly cloudy.3 mph94%29.89 "HgN/A
11:20 PM61 °FMostly cloudy.3 mph94%29.89 "HgN/A
10:50 PM61 °FMostly cloudy.5 mph94%29.89 "HgN/A
10:20 PM61 °FMostly cloudy.6 mph94%29.89 "HgN/A
9:50 PM61 °FMostly cloudy.8 mph94%29.89 "HgN/A
9:20 PM61 °FOvercast.6 mph94%29.92 "HgN/A
8:50 PM61 °FLow clouds.7 mph94%29.92 "HgN/A
8:20 PM61 °FLow clouds.3 mph100%29.92 "HgN/A
7:50 PM61 °FOvercast.6 mph94%29.92 "HgN/A
7:20 PM61 °FPartly sunny.6 mph100%29.92 "HgN/A
6:50 PM61 °FPartly sunny.7 mph100%29.92 "HgN/A
6:20 PM63 °FLots of rain. Partly sunny.7 mph94%29.95 "HgN/A
5:50 PM63 °FScattered clouds.8 mph94%29.95 "HgN/A
5:20 PM63 °FScattered clouds.9 mph94%29.95 "HgN/A
4:50 PM63 °FThundershowers. Scattered clouds.10 mph88%29.95 "HgN/A
4:20 PM64 °FThundershowers. Scattered clouds.9 mph83%29.98 "HgN/A
3:50 PM64 °FThundershowers. Scattered clouds.7 mph88%29.98 "HgN/A
3:20 PM66 °FThunderstorms. Partly sunny.10 mph83%29.98 "Hg3 mi
2:50 PM68 °FThundershowers. Scattered clouds.9 mph73%29.98 "HgN/A
2:20 PM70 °FPassing clouds.10 mph69%29.98 "HgN/A
1:50 PM68 °FPassing clouds.10 mph69%30.01 "HgN/A
1:20 PM70 °FPassing clouds.12 mph64%30.01 "HgN/A
12:50 PM68 °FPassing clouds.9 mph73%30.04 "HgN/A
12:20 PM66 °FPassing clouds.8 mph78%30.04 "HgN/A
11:50 AM64 °FPassing clouds.7 mph83%30.07 "HgN/A
11:20 AM63 °FPartly sunny.6 mph88%30.07 "HgN/A
Weather by CustomWeather, © 2016

See weather overviewHow to use our weather pages